Location: Six Mile Lake
(44.9000°N, 79.7170°W)
Time: 03:31:52
(UTC-05:00)

deb Kosmos-1275 - Visible Passes

Search period start: 26 November 2022 00:00
Search period end: 06 December 2022 00:00
Orbit: 823 x 844 km, 82.9° (Epoch: 25 November)

Date Brightness Start Highest point End Pass type
(mag) Time Alt. Az. Time Alt. Az. Time Alt. Az.
26 Nov ? 17:33:42 10° SSW 17:39:10 59° WNW 17:44:43 10° N visible
27 Nov ? 17:16:27 10° SSW 17:21:59 71° W 17:27:36 10° N visible
27 Nov ? 19:04:18 10° WNW 19:05:26 11° WNW 19:06:34 10° NW visible
28 Nov ? 18:45:34 10° W 18:48:04 13° WNW 18:50:35 10° NW visible
29 Nov ? 18:27:26 10° W 18:30:44 16° WNW 18:34:03 10° NNW visible
30 Nov ? 18:09:32 10° WSW 18:13:24 19° WNW 18:17:17 10° NNW visible
01 Dec ? 17:51:47 10° WSW 17:56:05 23° WNW 18:00:26 10° NNW visible
02 Dec ? 17:34:07 10° SW 17:38:47 27° WNW 17:43:29 10° NNW visible
03 Dec ? 17:16:34 10° SW 17:21:30 32° WNW 17:26:30 10° N visible
